Location: Ocean City
(38.3360°N, 75.0850°W)
Time: 01:12:13
(UTC-04:00)

MOZHAYETS 4 - Pass Details

Date: 26 May 2019
Orbit: 661 x 681 km, 98.0° (Epoch: 19 June)

Event Time Altitude Azimuth Distance (km) Brightness Sun altitude
Exits shadow 03:33:53 46° 234° (SW) 906 7.9 -20.1°
Maximum altitude 03:34:29 49° 260° (W) 867 7.9 -20.1°
Drops below altitude 10° 03:38:57 10° 336° (NNW) 2,107 10.6 -19.5°
Sets 03:41:15 0° 342° (NNW) 3,022 11.5 -19.2°
